Manchester, NH

1:05 AM EDT on May 01, 2017 (GMT -0400)
Manchester

Weather History for KMHT - November, 2013

Change the Weather History Date:

Friday, November 1, 2013

  Actual Average Record
Temperature  
Mean Temperature 62 °F 46 °F  
Max Temperature 69 °F 56 °F 75 °F (2003)
Min Temperature 54 °F 37 °F 23 °F (1964)
Degree Days  
Heating Degree Days 3 19  
Month to date heating degree days 19  
Since 1 July heating degree days 606  
Cooling Degree Days 0 0  
Month to date cooling degree days 0  
Year to date cooling degree days 642  
Growing Degree Days 12 (Base 50)    
Moisture  
Dew Point 56 °F    
Average Humidity 77    
Maximum Humidity 93    
Minimum Humidity 59    
Precipitation  
Precipitation 0.04 in 0.14 in 0.58 in (1960)
Month to date precipitation 0.14  
Year to date precipitation 37.37  
Snow  
Snow 0.00 in - - ()
Month to date snowfall  
Since 1 July snowfall  
Snow Depth -    
Sea Level Pressure  
Sea Level Pressure 29.54 in    
Wind  
Wind Speed 12 mph (SSW)    
Max Wind Speed 20 mph    
Max Gust Speed 36 mph    
Visibility 8 miles    
Events Rain    
T = Trace of Precipitation, MM = Missing Value Source: NWS Daily Summary

Daily Weather History Graph

Daily Weather History Graph

Search for Another Location

Airport or City:

Trip Planner

Search our weather history database for the weather conditions in past years. The results will help you decide how hot, cold, wet, or windy it might be!

Date:

Astronomy

Nov. 01, 2013 Rise Set
Actual Time 7:20 AM EDT 5:37 PM EDT
Civil Twilight 6:50 AM EDT 6:07 PM EDT
Nautical Twilight 6:17 AM EDT 6:40 PM EDT
Astronomical Twilight 5:44 AM EDT 7:13 PM EDT
Moon 5:06 AM EDT 4:30 PM EDT
Length of Visible Light 11h 16m
Length of Day
10h 17m
Waning Crescent, 4% of the Moon is Illuminated
Nov 1
Waning Crescent
Nov 3
New
Nov 10
First Quarter
Nov 17
Full
Nov 25
Last Quarter

Hourly Weather History & Observations

Time (EDT) Temp. Dew Point Humidity Pressure Visibility Wind Dir Wind Speed Gust Speed Precip Events Conditions
12:53 AM 59.0 °F 57.0 °F 93% 29.75 in 5.0 mi South 10.4 mph - 0.00 in Rain Light Rain
1:53 AM 60.1 °F 57.9 °F 93% 29.70 in 4.0 mi South 12.7 mph - 0.00 in Rain Light Rain
2:53 AM 61.0 °F 57.9 °F 90% 29.67 in 5.0 mi South 12.7 mph 19.6 mph 0.01 in Rain Light Rain
3:53 AM 61.0 °F 57.0 °F 87% 29.64 in 10.0 mi South 13.8 mph 23.0 mph 0.01 in   Overcast
4:53 AM 61.0 °F 55.9 °F 83% 29.62 in 10.0 mi South 9.2 mph 17.3 mph N/A   Overcast
5:53 AM 62.1 °F 57.0 °F 84% 29.59 in 10.0 mi South 10.4 mph - N/A   Mostly Cloudy
6:53 AM 64.0 °F 57.9 °F 80% 29.56 in 10.0 mi South 11.5 mph 21.9 mph 0.00 in Rain Light Rain
7:53 AM 66.0 °F 57.9 °F 75% 29.54 in 10.0 mi South 12.7 mph 20.7 mph 0.00 in   Mostly Cloudy
8:53 AM 66.9 °F 59.0 °F 76% 29.53 in 10.0 mi SSW 15.0 mph 25.3 mph 0.00 in Rain Light Rain
9:29 AM 66.2 °F 60.8 °F 83% 29.49 in 5.0 mi South 17.3 mph 32.2 mph 0.00 in   Light Drizzle
9:48 AM 66.2 °F 60.8 °F 83% 29.47 in 5.0 mi SSW 16.1 mph 24.2 mph 0.00 in   Light Drizzle
9:53 AM 66.9 °F 61.0 °F 81% 29.50 in 5.0 mi SSW 15.0 mph 25.3 mph 0.00 in   Light Drizzle
10:24 AM 68.0 °F 60.8 °F 78% 29.45 in 10.0 mi South 16.1 mph 26.5 mph 0.00 in   Overcast
10:53 AM 69.1 °F 59.0 °F 70% 29.46 in 10.0 mi South 19.6 mph 35.7 mph 0.01 in   Overcast
11:53 AM 66.0 °F 62.1 °F 87% 29.46 in 5.0 mi SSW 15.0 mph 26.5 mph 0.00 in Rain Light Rain
12:38 PM 66.2 °F 57.2 °F 73% 29.45 in 5.0 mi WSW 10.4 mph 24.2 mph 0.00 in   Haze
12:53 PM 66.9 °F 55.0 °F 66% 29.48 in 10.0 mi SW 16.1 mph 23.0 mph 0.00 in   Overcast
1:53 PM 66.0 °F 55.9 °F 70% 29.42 in 10.0 mi SSW 17.3 mph 27.6 mph 0.01 in   Mostly Cloudy
2:53 PM 66.0 °F 53.1 °F 63% 29.44 in 10.0 mi SW 12.7 mph 26.5 mph N/A   Scattered Clouds
3:53 PM 66.9 °F 53.1 °F 61% 29.46 in 10.0 mi SSW 17.3 mph 23.0 mph N/A   Partly Cloudy
4:53 PM 66.9 °F 52.0 °F 59% 29.47 in 10.0 mi SW 6.9 mph - N/A   Partly Cloudy
5:53 PM 64.9 °F 51.1 °F 61% 29.48 in 10.0 mi SSW 11.5 mph - N/A   Partly Cloudy
6:53 PM 63.0 °F 52.0 °F 67% 29.50 in 10.0 mi SSW 10.4 mph - N/A   Clear
7:53 PM 61.0 °F 52.0 °F 72% 29.54 in 10.0 mi South 6.9 mph - N/A   Clear
8:53 PM 60.1 °F 52.0 °F 75% 29.57 in 10.0 mi South 6.9 mph - N/A   Clear
9:53 PM 59.0 °F 51.1 °F 75% 29.61 in 10.0 mi South 6.9 mph - N/A   Clear
10:53 PM 55.9 °F 51.1 °F 84% 29.63 in 10.0 mi Calm Calm - N/A   Clear
11:53 PM 54.0 °F 51.1 °F 90% 29.66 in 10.0 mi SW 4.6 mph - N/A   Clear